Regional Weather Roundup
Issued by NWS Sioux Falls, SD

Home | Current Version | Previous Version | Graphics & Text | Print | Product List | Glossary Off
Versions: 1 2 3 4 5 6 7 8 9 10 11 12 13 14 15 16 17 18 19 20 21 22 23 24 25 26 27 28 29 30 31 32 33 34 35 36 37 38 39 40 41 42 43 44 45 46 47 48 49 50

023
ASUS43 KFSD 260610
RWRFSD

WEATHER ROUNDUP FOR SE SOUTH DAKOTA/SW MINNESOTA/NW IOWA
NATIONAL WEATHER SERVICE SIOUX FALLS SD
100 AM CDT FRI MAY 26 2017

NOTE: "FAIR" INDICATES FEW OR NO CLOUDS BELOW 12,000 FEET WITH NO
SIGNIFICANT WEATHER AND OR OBSTRUCTIONS TO VISIBILITY.


SDZ038>040-050-052>070-260700-
SOUTHEAST SOUTH DAKOTA

CITY           SKY/WX    TMP DP  RH WIND       PRES   REMARKS
BROOKINGS      PTCLDY    53  50  89 S6        29.66R
CHAMBERLAIN    CLOUDY    61  45  54 NW13      29.71R
6HR MIN TEMP:  55; 6HR MAX TEMP:  74;

HURON          CLOUDY    53  49  86 W8        29.65R
6HR MIN TEMP:  53; 6HR MAX TEMP:  69;

MADISON        FAIR      54  54 100 SW3       29.66S
MITCHELL       CLOUDY    55  53  93 CALM      29.65R
6HR MIN TEMP:  55; 6HR MAX TEMP:  72;

SIOUX FALLS    PTCLDY    55  52  89 NE3       29.66R
6HR MIN TEMP:  52; 6HR MAX TEMP:  71;

WINNER         FAIR      54  45  71 NW7       29.74R
YANKTON        CLOUDY    59  54  83 NW6       29.65R
$$

MNZ071-072-080-081-089-090-097-098-260700-
SOUTHWEST MINNESOTA

CITY           SKY/WX    TMP DP  RH WIND       PRES   REMARKS
FAIRMONT       CLOUDY    59  50  72 S9        29.69R
JACKSON        CLEAR     57  50  77 CALM      29.68F
LUVERNE        PTCLDY    54  48  82 CALM      29.67R
MARSHALL       CLEAR     56  52  86 S3        29.65S
6HR MIN TEMP:  55; 6HR MAX TEMP:  64; 6HR PCP: TRACE;

MONTEVIDEO     CLOUDY    57  52  82 S7        29.64S
PIPESTONE      CLEAR     57  46  67 CALM      29.67R
REDWOOD FALLS  PTCLDY    56  50  80 S8        29.65S
TRACY          CLEAR     59  53  80 S8        29.66S
WINDOM         CLEAR     57  50  77 SE8       29.67S
WORTHINGTON    PTCLDY    59  52  77 S13       29.68S
$$

IAZ001>003-012>014-020>022-031-032-NEZ013-014-SDZ071-260700-
NORTHWEST IOWA

CITY           SKY/WX    TMP DP  RH WIND       PRES   REMARKS
CHEROKEE       CLEAR     59  54  82 S5        29.68R
DENISON        CLOUDY    64  54  68 S12       29.69S
ESTHERVILLE    PTCLDY    55  52  89 S7        29.68R
LE MARS        CLOUDY    63  54  72 SE7       29.66R
ORANGE CITY    MOCLDY    61  54  77 S5        29.67R
SHELDON        MOCLDY    59  52  77 S8        29.66R
SIOUX CITY     CLOUDY    60  55  83 SE6       29.65R
6HR MIN TEMP:  57; 6HR MAX TEMP:  73;

SPENCER        CLEAR     58  51  78 SE9       29.68R
6HR MIN TEMP:  58; 6HR MAX TEMP:  69;

STORM LAKE     CLEAR     59  52  77 SE12      29.69R
$$

ABBREVIATIONS USED IN REMARKS
   TC - TEMPERATURE IN CELSIUS
  WCI - WIND CHILL INDEX
   HX - HEAT INDEX
  VSB - VISIBILITY





USA.gov is the U.S. government's official web portal to all federal, state and local government web resources and services.